Theta_e
319 322 327 329 328 329 330 331 331 332 333 332 332 332 332 332 332 331 331 331 332 332 332 331 328 326 326 325 325 324 323 322 322 320 319 319 318 319 319 320 320 323 329 332 332 330 331 333 335 335 329 324 325 324 323 323 323 323 324 324 324 324 323 323 322 326 330 332 329 327 327 328 328 327 326 327 329 329 330 331 332 331 330 328 328
319 320 323 326 328 328 328 329 330 331 332 332 332 332 331 330 330 330 331 332 331 330 329 328 325 324 323 323 323 322 321 321 320 320 320 319 319 320 321 321 321 323 327 330 330 330 331 333 335 335 329 326 327 326 325 324 324 324 325 324 325 325 324 324 323 323 325 326 326 328 330 328 327 327 328 328 328 328 329 329 330 331 332 332 331
320 319 321 324 326 328 327 328 328 329 330 331 332 331 331 329 329 329 331 331 328 327 326 324 323 323 322 322 322 321 321 321 320 320 320 320 321 321 322 322 321 322 327 329 330 332 332 333 334 332 328 327 329 328 326 325 324 324 324 324 325 325 325 325 325 324 324 324 325 329 332 332 329 327 327 328 329 328 326 325 327 327 329 331 332
320 318 320 322 325 327 327 327 327 328 328 329 330 330 330 328 328 329 330 328 325 324 324 323 322 323 322 322 321 321 321 321 321 320 320 320 320 322 323 322 322 322 327 331 332 333 333 333 331 329 328 329 330 328 326 325 324 323 323 322 323 324 325 325 325 325 325 325 326 328 330 332 332 331 329 329 329 329 328 326 325 324 322 324 326
321 318 319 321 323 325 326 326 326 327 327 327 327 328 328 327 327 328 328 326 324 323 322 322 322 322 321 321 322 322 321 321 321 321 321 321 321 323 323 322 322 323 328 333 334 334 334 331 327 327 329 330 331 329 327 325 324 324 323 323 321 320 321 323 325 325 326 326 327 330 331 332 333 333 333 332 331 330 329 328 328 326 323 319 319
321 319 319 320 321 323 325 326 326 326 326 326 326 326 326 326 326 326 325 324 323 322 322 321 321 321 321 321 321 321 321 321 324 326 326 325 325 324 323 323 323 326 330 333 334 334 333 327 323 325 327 329 331 330 329 327 326 325 324 325 323 318 316 319 323 325 326 327 326 329 330 331 332 333 334 334 333 333 331 329 329 329 327 323 320
321 319 319 319 320 322 323 325 325 325 325 326 325 324 324 325 325 324 324 323 323 322 322 321 321 321 321 321 321 321 321 324 329 331 331 329 327 325 324 324 325 330 331 333 334 334 331 325 322 323 324 326 327 327 327 328 328 327 327 326 322 316 313 314 318 322 325 328 327 327 330 330 329 331 333 334 334 333 333 331 328 328 329 328 326
320 320 320 319 320 321 322 324 324 324 325 325 325 325 324 324 324 323 323 323 323 322 322 322 321 321 321 321 321 322 323 328 332 332 332 329 325 325 325 325 328 332 332 333 333 332 329 324 321 320 321 321 321 322 323 324 325 324 324 321 316 313 313 312 312 316 320 326 328 327 329 328 325 327 331 334 333 333 333 332 328 327 329 329 328
321 321 320 320 320 320 322 323 324 324 324 324 324 324 324 324 324 324 324 323 323 323 323 322 322 322 322 322 322 325 327 331 333 333 331 327 324 324 326 327 331 333 333 333 332 331 328 323 320 316 317 317 316 317 318 319 318 317 316 314 312 311 311 311 311 312 314 321 327 328 329 328 324 325 331 333 332 332 333 332 329 326 327 327 326
320 321 321 321 320 320 320 322 323 323 323 323 323 323 323 323 323 324 324 324 324 324 324 324 323 323 323 323 324 326 328 331 333 332 330 327 325 325 327 328 331 333 333 333 332 330 327 321 317 313 312 313 312 313 314 314 313 313 312 310 309 308 307 308 309 310 310 314 323 328 328 328 325 324 328 331 333 332 332 331 329 326 324 324 322
319 321 321 321 320 320 320 321 322 323 322 322 323 322 322 321 321 321 323 325 326 326 326 325 324 324 324 324 326 328 328 330 332 331 329 328 326 323 325 327 328 330 331 331 329 326 323 317 313 311 311 311 311 311 312 312 311 309 308 306 305 305 305 305 306 307 309 310 316 323 325 325 325 323 323 327 332 332 330 328 328 326 325 326 324
318 320 321 321 321 320 319 320 321 322 322 321 322 322 322 321 321 321 321 323 325 326 326 326 325 325 324 324 328 332 330 329 330 330 330 329 324 320 322 324 325 326 327 327 325 323 320 315 311 310 310 310 311 310 310 308 307 305 304 304 304 304 304 304 305 304 306 308 310 316 319 320 322 323 321 322 327 330 329 327 327 325 326 328 326
317 319 320 321 321 321 320 319 320 321 321 321 321 321 322 321 321 321 320 321 323 325 326 327 325 324 323 323 329 333 332 330 329 328 329 328 323 319 319 320 322 324 325 324 323 321 317 313 310 308 308 308 308 307 306 305 304 304 304 304 304 304 304 304 304 304 304 305 307 310 313 315 317 320 320 318 319 322 322 322 323 322 324 326 325
316 317 319 320 321 321 320 319 319 319 320 320 319 319 320 319 320 319 319 319 321 323 325 326 325 324 322 322 329 333 333 332 330 327 328 327 323 319 317 318 319 321 323 324 322 319 315 312 309 306 305 305 305 305 304 304 304 304 304 304 305 305 305 305 304 304 304 304 305 306 308 310 312 314 316 317 316 315 313 313 314 316 320 321 322
316 316 317 319 320 321 321 320 319 318 318 318 317 317 317 317 318 318 317 317 318 320 322 325 324 323 321 321 329 333 334 333 330 327 327 326 322 319 316 316 316 316 318 319 318 315 312 310 307 305 305 304 304 304 304 304 304 304 305 306 306 307 306 306 305 305 305 305 304 305 305 307 309 311 312 314 313 310 308 307 308 311 313 315 316
316 316 316 318 319 320 321 321 320 319 318 317 316 315 316 316 316 317 316 316 316 317 320 323 322 321 320 321 329 333 334 334 331 328 327 324 320 316 314 313 313 312 313 314 313 311 309 308 306 305 305 304 304 304 304 304 305 306 307 307 308 308 308 307 307 307 306 305 305 304 304 305 306 307 308 308 307 305 305 305 305 306 308 309 309
316 316 316 316 317 319 320 321 321 320 319 317 316 315 314 314 315 316 315 315 315 317 319 321 321 320 320 322 329 333 333 333 330 327 326 322 316 312 311 310 310 310 310 309 309 309 307 306 305 305 304 304 304 304 304 305 306 307 307 307 307 308 307 307 307 308 308 307 306 305 305 305 304 305 304 304 304 304 304 304 303 304 304 304 304
316 316 316 316 316 317 318 320 321 321 320 318 317 315 314 314 314 314 314 314 314 315 318 319 319 320 321 323 330 332 332 332 330 327 325 320 314 311 311 309 308 308 307 307 307 307 307 306 305 304 304 304 304 304 305 307 307 307 307 307 307 307 307 307 307 308 308 307 307 306 306 306 305 304 304 304 304 304 304 304 303 303 303 303 303
316 316 316 316 316 316 316 318 319 321 321 320 318 316 315 314 314 314 313 313 313 314 316 318 318 320 321 323 329 331 332 332 330 328 325 319 313 312 312 309 307 306 305 306 306 306 306 305 305 304 304 304 304 305 306 307 307 306 306 307 307 307 307 307 307 308 307 307 307 307 307 306 306 306 305 305 305 305 304 304 304 303 303 303 303
315 315 316 315 315 316 316 316 317 318 319 320 319 318 317 315 315 314 313 313 313 313 314 316 316 318 320 323 328 330 331 331 329 326 321 316 313 313 312 309 306 304 305 305 306 306 305 305 304 304 304 304 305 306 307 306 306 306 306 306 306 306 306 307 307 307 307 307 307 307 307 307 306 306 306 306 305 305 305 304 304 304 304 304 304
315 315 315 315 315 315 316 316 316 316 317 318 319 319 318 317 316 314 314 313 313 313 314 315 315 315 318 322 325 328 329 328 325 321 315 313 312 311 312 310 306 304 305 305 306 305 305 305 304 305 304 305 306 306 306 306 306 306 306 306 306 306 306 307 307 307 306 306 307 307 307 307 306 306 306 306 305 305 305 305 305 304 304 304 303
315 314 315 315 315 315 315 315 316 316 316 316 317 318 318 318 317 316 315 314 314 313 313 314 315 314 316 320 323 325 325 322 319 315 313 312 311 310 311 310 305 304 305 305 305 305 305 305 304 305 305 306 306 306 306 306 306 306 306 306 306 306 306 307 307 306 307 307 307 306 306 306 306 306 306 305 305 305 305 305 304 304 304 304 303
314 314 314 315 315 315 315 315 315 315 316 316 316 316 317 318 318 317 316 314 314 314 313 313 313 313 314 318 321 322 321 317 315 313 312 311 310 310 310 309 305 304 305 305 305 305 305 305 305 305 305 306 306 306 306 306 306 306 306 306 306 306 307 307 307 307 307 307 307 307 307 306 306 306 306 306 306 305 305 305 304 304 304 304 304
314 313 314 314 315 315 315 315 315 315 315 315 316 316 316 317 317 317 317 316 315 314 314 313 313 312 313 315 318 318 317 316 314 314 313 311 310 310 309 308 306 305 305 305 305 305 305 305 305 305 306 306 306 306 306 306 306 306 306 306 307 307 307 307 307 307 307 307 307 307 307 307 307 306 306 306 306 305 305 304 305 305 304 304 304
314 314 314 314 314 314 314 314 315 315 315 315 315 316 316 316 317 317 317 317 316 315 314 313 312 312 311 313 314 315 314 314 314 313 312 311 310 309 309 308 306 305 305 305 305 306 305 305 305 305 306 306 306 306 306 306 306 306 307 307 307 307 307 307 307 307 307 307 307 307 307 307 307 306 307 306 306 306 305 305 306 306 304 305 304
314 314 313 313 314 314 315 315 315 314 314 315 315 315 316 316 316 317 317 317 316 315 315 314 313 311 311 311 312 313 312 312 312 312 312 311 310 309 309 308 307 305 305 306 305 306 306 305 304 304 306 306 306 306 306 306 306 306 307 307 307 307 307 307 307 307 307 307 307 307 307 307 307 307 306 306 306 306 305 306 307 307 308 308 306
314 314 314 314 314 314 314 315 315 315 314 314 314 315 315 315 316 316 317 317 317 316 315 314 314 313 311 311 311 312 312 312 312 312 312 311 310 310 309 309 307 306 305 306 306 306 306 305 304 304 305 306 306 306 306 306 306 306 306 307 307 307 307 307 307 307 307 307 306 306 306 306 306 306 306 306 306 306 305 305 306 308 310 309 307
315 314 314 314 314 314 314 314 315 314 314 314 314 314 315 315 316 316 317 317 317 317 316 315 315 314 313 311 311 312 312 311 312 312 312 311 311 311 310 309 308 306 305 306 306 306 306 305 304 304 305 306 306 306 305 305 305 306 306 307 307 307 307 307 307 306 307 307 306 306 306 306 306 306 306 306 305 305 305 305 307 309 311 311 307
315 315 315 315 315 315 315 315 315 315 315 315 315 315 315 315 315 316 316 316 317 317 317 317 316 315 314 313 312 311 311 311 312 312 312 312 312 312 311 310 309 307 306 306 306 307 307 306 304 304 305 305 306 306 305 305 305 306 306 307 306 306 306 307 307 306 306 306 306 306 306 306 305 305 305 305 305 305 305 305 305 307 310 310 305
315 315 315 315 315 315 316 316 316 316 315 316 316 315 315 315 315 315 316 316 316 317 317 318 318 317 316 315 313 313 312 312 312 312 312 312 312 313 313 311 310 307 306 306 306 307 307 306 305 305 305 306 305 305 305 305 306 306 306 306 306 306 306 306 307 306 306 306 306 306 306 306 305 305 305 305 305 304 305 304 303 305 308 310 307
315 316 315 316 316 316 316 316 316 316 316 317 317 317 317 317 317 317 317 317 317 318 318 318 318 318 317 316 316 315 314 313 313 313 312 312 312 312 313 312 311 309 307 306 306 306 307 307 305 304 305 305 305 305 305 305 306 306 306 306 306 306 306 306 306 306 306 306 306 306 306 306 305 305 305 305 305 304 305 303 304 306 310 313 312
316 316 317 317 316 316 316 316 316 317 317 317 317 318 318 318 319 320 320 320 320 320 320 320 319 319 318 318 318 317 316 315 314 314 313 313 312 312 312 313 312 310 308 306 305 306 306 307 305 304 304 304 304 304 305 305 305 306 306 306 306 306 306 306 306 306 306 306 306 306 306 306 306 306 305 305 305 304 304 304 304 304 308 312 311
315 315 316 316 315 315 316 317 317 317 317 318 318 318 319 319 320 321 322 323 323 323 322 322 322 321 321 320 320 319 319 318 317 316 316 314 313 313 313 312 312 311 309 307 305 305 306 306 305 304 304 304 304 304 305 305 305 305 305 305 305 306 306 306 306 305 306 306 306 306 306 306 306 306 305 305 305 304 304 304 304 302 303 305 308
314 314 314 314 314 314 315 317 317 317 318 318 319 319 320 320 321 322 323 324 324 325 325 325 325 324 323 323 323 322 322 321 320 320 319 318 316 315 314 313 313 312 310 308 306 305 305 306 306 305 304 304 303 303 304 305 305 305 305 305 305 305 305 305 305 305 305 305 305 305 305 305 306 306 305 305 305 304 304 304 303 302 301 301 307
314 313 313 313 313 313 315 316 316 317 318 319 320 320 321 322 322 322 323 324 324 325 326 326 325 325 325 325 325 325 324 324 323 322 322 321 319 317 316 314 313 313 310 309 308 306 305 305 305 305 304 303 303 303 303 304 304 304 304 305 305 305 305 305 305 304 304 305 305 305 305 305 305 305 305 305 304 304 304 303 303 302 300 300 304
313 313 313 312 313 313 315 315 316 317 318 319 320 322 323 323 323 323 323 324 324 325 326 326 326 326 326 326 326 326 326 325 324 324 323 323 321 320 318 316 315 314 311 310 309 307 306 304 304 305 304 303 303 303 303 303 304 304 304 304 304 305 305 305 304 304 304 304 304 304 304 304 305 305 304 305 304 304 304 303 303 302 300 299 302
312 312 312 312 312 313 314 315 315 316 317 319 321 323 323 324 324 324 324 324 325 325 326 326 326 326 326 326 326 326 326 326 325 325 324 323 322 321 320 318 316 315 313 312 310 308 306 304 304 304 304 303 303 303 303 303 303 303 304 303 304 304 304 304 304 303 303 303 303 303 304 304 304 304 304 304 304 304 303 303 302 302 301 300 300
311 311 312 312 312 313 314 314 315 316 316 316 320 323 324 324 324 324 324 325 325 325 325 325 325 325 326 326 326 326 326 326 325 325 325 324 323 322 321 320 318 317 316 315 312 310 307 305 304 303 303 303 302 302 302 302 302 302 303 303 303 303 304 303 303 303 303 303 303 303 303 303 303 303 303 303 304 303 303 303 303 302 301 300 299
309 310 311 311 312 312 313 314 314 314 313 313 316 320 322 323 324 324 324 324 324 325 325 324 324 324 324 325 325 325 325 325 325 325 325 324 323 323 322 321 320 319 318 317 314 312 309 307 305 304 303 302 302 301 301 301 301 301 302 302 302 302 302 303 303 303 303 302 302 302 302 302 303 303 303 303 303 303 303 303 303 302 301 300 299
309 309 310 311 311 312 312 312 311 310 310 311 314 315 316 318 321 323 323 323 323 323 323 323 323 323 323 324 324 324 324 324 324 324 324 323 323 323 322 321 320 320 319 318 316 315 312 309 306 304 303 302 302 301 300 300 299 300 301 301 302 302 302 302 302 302 302 302 302 302 302 302 302 302 302 302 302 302 303 303 303 302 301 300 299
308 309 310 310 310 310 310 309 310 310 310 311 312 312 312 314 315 317 319 320 321 321 321 321 322 322 322 322 322 323 323 323 323 323 322 322 322 321 321 321 321 320 319 319 318 317 314 311 308 305 303 302 302 301 300 300 299 299 299 300 301 301 302 302 302 302 302 301 301 301 301 302 302 302 302 302 302 302 302 302 302 302 301 300 299
308 308 309 309 309 309 309 309 310 310 311 311 311 312 314 315 315 315 315 315 316 317 318 318 319 320 320 321 321 321 321 321 321 321 321 320 320 320 320 320 320 320 320 319 318 317 315 313 310 307 305 303 302 301 301 300 299 299 299 299 300 301 301 301 301 301 301 301 301 301 301 301 301 301 301 301 301 301 301 302 302 302 301 301 300
307 308 308 308 308 308 307 308 308 309 309 310 310 310 313 314 315 315 316 315 315 314 314 313 314 315 316 316 317 318 318 318 318 318 318 318 318 318 318 319 319 319 319 319 318 317 316 315 313 310 307 304 302 301 301 300 300 300 299 299 299 300 300 300 301 301 301 301 301 301 301 301 301 301 301 301 301 301 301 301 302 302 301 301 300
308 308 308 308 308 308 308 307 307 307 307 308 307 308 308 309 311 313 314 314 313 312 311 310 309 309 310 310 311 312 312 313 313 314 314 315 315 316 316 316 317 317 317 318 317 317 317 316 315 313 310 306 303 302 301 300 299 299 299 298 299 299 299 300 301 301 301 301 301 301 301 301 301 301 301 301 301 300 300 301 301 302 301 301 300
307 308 308 309 308 308 308 308 308 308 307 307 307 307 307 307 307 308 309 309 309 308 308 308 307 307 306 306 306 306 306 307 307 308 309 310 311 313 313 314 314 315 315 316 316 316 316 316 315 314 312 308 305 303 301 300 299 299 299 299 299 299 299 300 300 300 300 300 301 301 301 301 301 301 301 301 300 300 300 300 301 301 301 301 300
306 306 307 308 308 308 308 308 308 308 308 307 307 307 307 306 306 306 306 307 307 307 307 306 306 305 305 305 304 304 304 304 304 305 305 306 307 309 310 311 312 313 313 314 314 314 314 314 313 312 311 310 307 303 301 300 299 299 298 298 299 299 299 300 300 300 300 300 300 300 300 300 300 300 301 301 301 300 300 300 301 301 301 301 301
304 305 306 307 307 307 307 307 307 307 307 307 307 307 307 306 306 306 306 306 306 306 306 305 305 305 304 304 304 304 304 304 304 304 304 304 304 305 306 308 309 310 311 311 312 312 313 313 312 311 310 309 307 304 302 301 299 298 298 298 298 298 298 299 299 300 300 300 300 300 300 300 300 300 301 301 301 301 300 300 301 301 301 301 301
304 305 306 306 307 307 307 306 306 306 306 306 306 306 306 306 306 305 305 305 305 305 305 305 305 304 304 304 304 303 303 303 303 303 303 303 303 303 304 304 306 307 308 309 310 310 311 311 311 310 309 308 307 305 303 302 300 299 299 298 298 298 298 298 298 299 299 300 300 300 300 300 300 301 301 301 301 301 301 301 301 301 300 301 301
304 304 305 306 306 306 306 305 305 305 305 305 305 305 305 305 305 305 305 305 304 304 304 304 304 304 305 304 304 303 303 303 303 303 303 303 303 303 302 303 303 304 305 306 307 308 308 309 309 308 308 307 307 306 304 302 301 300 299 298 298 298 297 297 298 298 299 299 299 300 300 300 300 300 301 301 301 301 301 301 301 300 300 300 300
304 304 305 305 305 305 305 305 304 304 304 304 304 304 304 304 304 304 304 304 304 304 303 303 303 303 304 304 304 303 303 303 303 302 302 302 302 302 302 302 302 302 302 303 304 305 306 307 307 307 307 306 305 305 305 303 302 301 300 298 298 297 297 297 297 298 298 299 299 299 299 300 300 300 300 300 301 301 301 301 300 300 300 300 300
304 304 304 304 305 304 304 304 304 303 303 303 303 303 303 303 303 302 302 302 303 303 303 303 303 303 303 303 303 303 302 302 302 302 302 302 302 302 301 301 301 301 301 301 301 302 303 304 305 305 305 305 304 304 304 303 302 301 300 299 298 297 297 297 297 297 298 298 298 299 299 299 299 300 300 300 300 300 300 300 300 300 299 299 299
Wind_Speed
5 7 10 13 15 15 14 13 13 13 14 15 15 15 15 14 13 12 10 9 8 8 7 7 7 7 7 7 7 6 6 5 5 5 5 5 4 4 4 5 6 7 8 7 6 5 5 5 5 5 5 5 5 5 6 7 7 7 8 8 8 8 9 9 10 11 10 9 8 9 9 9 9 9 8 8 8 8 8 7 6 5 4 5 6
3 7 10 12 16 15 14 13 13 13 13 14 14 15 14 14 13 12 10 10 10 9 9 9 8 8 7 7 7 6 6 5 4 4 3 3 3 2 3 3 5 6 7 5 4 4 4 4 4 4 3 3 4 4 4 5 5 6 6 6 7 7 7 8 8 8 8 8 8 8 8 8 8 8 7 7 7 7 7 7 6 5 4 5 6
2 6 9 11 14 16 15 14 13 13 13 14 14 14 14 13 13 12 11 11 11 11 11 11 10 9 8 7 7 6 6 5 4 4 4 3 3 2 2 2 4 5 6 5 4 4 4 4 4 2 1 1 2 3 4 4 4 5 5 5 5 5 6 6 6 6 6 6 6 7 7 7 7 6 6 5 5 6 6 5 5 4 4 5 5
1 5 8 11 13 15 16 15 14 13 14 14 13 13 13 13 12 12 12 11 12 13 13 12 11 10 9 8 7 7 6 6 5 5 5 5 4 3 2 2 3 4 5 5 5 4 4 4 2 1 1 1 1 3 3 3 3 4 4 4 4 4 4 4 4 4 3 4 5 6 7 7 6 5 6 5 4 4 4 5 5 4 4 5 5
0 3 7 11 13 15 16 16 15 14 14 14 13 13 12 12 12 12 12 12 13 13 12 12 11 10 9 8 7 7 7 6 6 6 6 5 5 4 4 3 3 4 5 5 5 5 4 3 1 1 2 1 2 3 3 2 2 1 2 2 3 2 2 1 2 2 2 2 4 5 5 5 4 4 5 5 4 3 3 3 4 4 4 4 5
3 3 6 10 13 14 16 16 16 15 15 14 14 13 12 12 12 13 13 13 14 13 12 11 10 9 8 7 7 7 6 6 5 5 5 5 6 6 5 3 4 6 6 5 5 5 5 3 1 2 2 3 3 4 4 4 4 3 3 3 3 4 4 2 1 2 2 1 1 3 3 3 3 3 4 3 3 2 2 2 3 3 4 4 4
5 4 6 9 12 14 15 16 16 16 16 15 15 14 13 13 14 14 14 14 14 14 12 11 10 9 8 8 7 6 6 6 5 6 6 6 7 6 5 5 5 7 6 6 7 7 7 4 4 4 4 5 5 5 5 5 5 6 6 6 6 6 5 4 4 4 4 3 3 2 2 2 2 2 2 1 1 2 1 1 1 1 3 3 3
6 6 6 8 11 14 15 16 16 16 16 16 15 15 15 14 15 15 15 15 15 14 13 12 10 9 9 8 8 6 6 6 6 6 7 7 6 6 6 6 7 7 7 7 8 10 8 6 7 6 7 7 7 6 6 6 6 7 8 8 8 8 7 6 6 7 6 6 6 5 4 3 3 3 2 1 0 2 2 2 2 0 3 3 3
7 7 7 8 10 13 15 16 17 17 17 17 16 16 16 16 16 16 16 16 15 14 13 12 11 10 10 9 8 7 7 7 7 8 8 7 5 5 6 7 8 8 8 7 9 11 10 10 9 8 7 8 8 7 7 7 8 8 9 9 9 8 8 8 8 8 8 9 9 8 7 5 5 5 4 2 2 3 4 4 3 2 1 2 3
8 8 8 8 9 12 15 16 17 17 17 17 17 17 17 17 17 17 17 16 16 15 14 13 12 11 10 9 8 8 9 9 10 10 9 7 4 4 6 8 9 9 9 8 9 11 12 12 10 8 7 8 8 8 8 8 8 8 9 9 8 7 7 8 8 8 9 11 12 12 10 9 8 7 7 5 4 5 6 6 6 6 5 5 4
8 9 9 9 9 11 14 16 17 17 18 17 18 17 17 17 17 17 17 17 17 16 15 14 13 13 11 10 9 10 11 10 11 11 10 8 6 6 7 8 9 10 10 9 9 11 13 12 10 7 6 7 8 8 8 7 6 6 6 6 5 4 4 6 7 7 9 11 14 14 13 12 10 9 9 8 7 6 7 6 6 5 4 4 3
8 9 10 10 10 11 13 16 17 17 18 18 18 18 18 17 17 17 17 17 17 17 16 16 15 15 13 12 11 12 12 12 13 13 11 9 8 8 9 10 10 10 11 11 11 12 11 11 10 6 5 6 6 6 6 5 4 3 3 3 2 2 2 2 4 6 9 11 14 15 15 13 12 10 10 10 10 9 9 7 5 5 3 3 3
9 10 11 11 10 11 12 14 16 17 18 18 18 18 18 18 18 17 17 17 18 17 17 18 17 16 15 13 13 13 13 13 14 15 13 11 11 12 11 11 11 12 13 14 14 14 12 12 9 5 5 5 5 5 4 3 2 2 2 2 2 1 1 1 2 5 7 9 12 14 15 14 13 12 11 11 10 10 11 10 9 8 6 5 4
8 10 11 11 11 11 12 13 15 17 18 18 18 18 19 18 18 18 18 17 18 18 18 18 18 17 16 15 15 15 15 15 15 16 14 14 13 13 12 12 12 13 15 15 16 14 13 12 8 5 4 4 4 3 2 2 2 2 2 2 2 2 2 1 2 5 6 7 9 11 13 13 13 12 12 11 11 11 12 11 11 10 9 8 7
7 9 11 11 11 12 12 13 14 16 17 18 19 19 19 19 19 18 18 17 17 17 17 18 18 17 17 16 17 17 16 16 17 17 16 15 13 12 12 13 13 14 16 16 15 13 12 11 8 5 5 4 4 4 4 3 3 2 2 3 3 3 2 2 3 5 5 5 6 8 11 12 12 12 12 12 12 11 10 9 9 10 11 11 11
8 8 10 11 12 13 13 14 14 15 17 18 19 19 19 19 19 19 18 17 16 16 16 17 18 18 17 17 18 18 18 17 17 17 17 15 13 12 12 12 12 13 14 15 13 12 11 10 8 6 6 6 6 5 5 4 4 3 3 3 3 3 3 3 5 5 5 5 6 7 8 10 11 11 12 12 11 9 7 6 6 8 9 10 11
9 9 9 11 12 14 14 15 15 16 17 18 19 20 20 19 19 19 19 18 16 16 16 17 18 19 18 18 19 19 20 19 19 18 17 16 14 12 11 10 11 11 12 13 12 11 10 9 7 7 7 7 6 6 5 4 4 4 4 4 4 4 4 5 6 6 5 5 5 6 7 8 9 10 11 11 10 7 5 5 5 6 7 7 8
10 11 10 11 12 13 15 16 17 17 18 18 19 21 21 20 20 20 19 18 18 17 17 17 19 19 18 20 21 20 21 20 20 19 17 16 14 11 10 9 10 10 10 11 11 9 9 8 7 8 8 7 6 6 5 5 5 4 4 4 4 4 5 6 7 6 6 5 5 6 7 8 9 9 9 9 9 8 6 6 6 5 5 5 5
12 13 13 12 12 13 15 16 18 19 19 19 20 21 21 21 21 21 20 19 19 18 18 18 19 19 19 21 22 21 21 21 20 20 18 17 15 11 10 10 9 10 10 10 10 9 8 8 8 9 8 7 7 6 6 6 5 5 5 5 5 5 6 7 7 6 6 6 6 7 7 8 9 9 9 9 9 9 8 7 7 6 6 6 5
14 14 15 15 14 14 15 17 18 19 20 20 21 21 22 22 22 22 21 21 20 19 19 19 19 20 20 22 24 22 21 21 20 20 19 18 15 12 11 11 10 10 10 10 10 9 9 9 10 10 9 8 7 7 7 6 5 5 5 5 5 6 6 6 6 6 5 6 7 7 7 8 8 8 9 9 9 9 9 8 8 7 7 6 6
15 15 16 16 17 17 16 17 18 19 20 21 21 22 22 23 23 23 23 22 21 21 21 20 20 21 22 23 24 24 23 22 21 20 19 17 15 13 12 12 12 11 11 11 11 10 11 11 11 10 9 9 8 8 7 6 6 5 5 5 6 6 6 6 6 6 6 6 7 7 7 7 8 8 8 8 8 8 8 8 8 7 7 6 6
16 16 16 17 18 19 18 18 18 19 20 21 22 22 23 23 24 24 24 24 23 22 22 22 22 21 22 24 24 24 24 23 22 21 19 17 15 14 13 14 14 13 12 12 12 11 12 12 11 11 10 9 9 8 8 7 6 6 6 7 7 7 7 7 7 7 7 7 7 7 7 7 8 8 7 7 8 8 8 8 8 7 6 5 5
17 15 15 17 18 19 20 19 18 18 20 21 22 22 23 23 24 25 25 25 25 24 24 24 23 23 23 24 24 25 24 23 22 21 20 18 17 15 14 15 15 14 13 13 13 13 13 13 12 12 11 10 9 9 9 8 7 7 7 7 8 8 8 8 8 8 8 8 8 8 8 8 8 8 8 7 7 7 7 7 7 7 6 4 4
16 15 14 15 17 18 19 20 19 19 21 22 22 23 23 23 24 25 26 26 26 26 26 25 25 25 25 25 26 25 25 24 23 22 21 20 18 16 15 16 16 16 15 14 14 14 14 14 13 13 12 11 11 10 10 9 9 8 8 8 8 8 8 8 8 8 9 9 9 9 9 9 9 10 10 8 7 7 7 7 7 6 5 3 3
17 16 16 15 16 16 17 18 19 20 21 22 23 23 23 23 25 25 26 27 27 28 27 27 27 27 26 27 27 27 26 25 25 24 22 21 19 18 16 16 17 17 17 15 16 15 15 15 14 14 14 13 12 12 11 10 10 9 9 9 8 8 8 8 8 9 9 9 9 9 10 10 10 10 10 10 9 8 7 7 6 6 5 3 3
18 17 16 15 14 14 15 16 18 21 21 22 22 23 24 24 24 25 26 27 28 29 29 29 29 28 28 28 28 28 28 27 26 25 23 22 21 19 17 16 17 19 18 17 17 17 16 15 14 15 15 14 14 13 12 12 10 10 10 10 9 9 9 8 8 9 10 9 10 10 10 10 10 10 10 10 9 8 7 6 6 6 4 3 2
19 18 17 16 16 14 14 14 16 19 21 22 23 24 25 25 24 24 25 26 27 28 29 30 30 30 30 29 29 29 29 28 27 26 24 23 22 21 19 18 18 20 19 18 18 18 17 16 16 17 17 15 15 15 13 12 11 11 11 11 10 9 9 8 8 9 10 9 10 10 10 10 10 10 10 10 10 9 7 6 5 5 3 3 1
20 20 19 20 19 17 16 16 16 16 19 21 23 24 25 26 26 26 26 26 26 27 28 28 29 31 32 31 31 30 30 30 29 27 25 24 23 23 21 19 20 21 20 20 19 19 18 17 17 18 18 17 17 16 14 13 13 12 12 12 11 10 10 9 9 9 9 9 10 10 10 10 10 10 11 10 10 9 8 6 5 4 3 3 2
20 20 21 21 21 21 20 20 19 17 18 20 23 24 25 26 27 27 27 27 27 27 26 26 27 29 31 33 32 32 32 31 30 28 27 26 25 24 23 21 21 22 22 21 21 20 20 19 19 20 20 19 18 17 16 15 15 14 14 13 12 11 10 10 9 8 9 10 9 10 10 10 10 10 11 11 10 10 9 8 6 5 5 5 4
18 18 19 20 20 21 22 22 22 20 19 19 21 23 25 26 27 28 27 27 27 26 27 27 26 26 28 31 33 33 33 32 31 30 29 28 27 26 25 23 22 23 24 23 22 21 21 21 20 21 22 21 19 18 18 18 17 16 15 14 13 12 11 11 10 9 9 10 10 10 10 10 10 10 11 11 11 10 10 9 8 7 6 6 4
15 16 17 18 18 20 21 22 22 21 20 20 20 22 24 26 27 27 28 28 28 27 28 28 27 26 26 27 29 31 33 33 32 31 31 30 29 28 27 25 24 24 25 25 24 23 22 22 22 22 23 22 20 20 20 20 19 18 17 16 15 13 13 12 11 10 9 10 10 10 10 10 10 10 11 11 11 11 11 11 10 9 7 6 5
13 14 14 14 16 17 18 19 20 20 21 20 19 20 22 24 26 27 28 28 28 28 29 28 28 27 26 26 26 28 30 32 32 32 32 31 31 29 28 27 25 25 26 26 26 24 23 23 23 23 23 23 22 22 23 22 21 20 19 18 17 15 14 14 13 12 11 11 11 10 10 10 10 10 11 11 12 13 13 12 11 10 8 9 8
11 13 12 11 11 13 14 15 17 18 19 19 18 18 19 21 24 26 28 28 28 29 29 29 29 27 27 26 26 26 27 28 30 31 31 31 31 30 29 28 26 26 26 26 27 26 25 25 25 24 25 26 25 25 25 24 23 22 20 20 19 18 16 16 15 14 13 12 12 11 11 11 10 10 11 11 12 13 14 13 12 10 9 11 8
9 11 11 11 9 9 10 11 13 14 15 16 17 17 17 19 21 24 26 27 27 27 27 28 28 28 27 27 26 26 26 27 28 30 30 30 30 30 29 27 26 27 26 26 26 27 27 27 26 26 26 27 27 26 27 26 25 23 22 22 21 20 19 18 17 16 14 14 13 12 12 12 11 11 11 12 13 13 14 13 13 11 11 11 10
10 11 10 10 8 6 7 8 9 10 12 13 14 15 16 17 19 22 23 25 25 25 25 26 26 27 27 27 27 26 26 27 28 30 30 30 30 30 29 27 27 27 27 26 26 27 28 28 27 27 28 29 29 28 27 27 26 25 24 23 23 22 21 20 19 17 16 16 14 14 13 13 12 12 12 12 12 13 13 14 13 13 13 13 15
13 13 11 9 7 3 3 5 6 7 8 10 12 14 15 16 18 19 21 22 23 23 23 23 23 25 26 27 27 27 27 27 28 30 30 31 30 30 29 28 28 28 27 26 27 28 28 29 29 28 29 30 30 29 29 28 28 27 26 25 25 24 23 22 20 19 19 18 16 16 15 14 13 13 13 12 12 12 13 14 14 14 14 15 17
14 13 11 8 6 5 2 2 3 4 6 7 10 12 14 15 16 17 18 19 20 21 21 20 21 23 25 26 27 27 27 28 29 29 30 30 30 31 30 29 29 28 27 28 28 29 29 30 30 30 29 30 31 30 30 29 29 29 29 28 27 26 26 25 23 21 21 20 19 18 17 15 14 14 14 13 12 13 13 14 15 15 15 16 18
8 8 8 7 7 7 6 5 4 4 4 5 7 10 12 14 15 15 16 17 18 18 18 19 19 20 22 24 26 27 27 28 28 29 30 30 31 31 31 30 29 29 29 30 30 31 31 31 32 31 30 30 31 31 30 30 30 30 30 29 29 28 28 27 25 23 23 22 22 20 19 17 16 15 15 14 13 14 14 15 15 15 16 16 17
2 4 5 7 8 8 7 6 6 5 4 4 5 7 10 13 14 14 15 15 16 17 17 18 18 19 21 22 23 25 26 27 28 28 29 30 31 31 31 31 31 31 31 32 32 33 33 33 33 32 31 31 31 31 30 29 30 31 31 31 30 30 29 28 27 26 25 24 23 23 21 19 18 18 17 15 15 15 15 16 16 16 16 17 17
4 5 6 6 7 7 6 6 5 5 5 5 4 5 7 9 12 13 14 14 15 16 16 16 17 19 20 21 22 23 24 25 26 27 28 29 30 31 31 31 32 33 32 33 34 34 34 34 34 33 33 32 32 32 31 30 31 32 32 32 32 31 31 31 30 28 27 26 26 25 23 21 21 21 19 17 16 16 16 16 17 17 17 17 18
7 6 5 5 5 5 5 5 6 5 6 6 5 4 4 5 6 9 10 11 13 14 15 15 16 18 19 20 20 21 22 23 24 25 27 28 29 29 30 31 32 33 33 33 33 34 34 34 34 34 33 33 33 34 34 33 33 33 34 33 33 33 33 33 32 31 29 29 29 27 25 24 24 23 22 20 18 17 17 17 18 18 18 18 18
15 12 10 10 9 8 8 7 7 5 5 5 5 5 4 3 2 3 4 6 8 10 11 13 15 16 18 19 19 20 21 21 22 23 25 26 27 27 28 29 31 32 33 34 34 34 34 34 35 35 34 34 34 35 36 37 37 37 36 34 34 35 36 36 34 33 33 33 31 29 28 27 26 25 24 22 21 19 18 18 18 19 18 18 19
26 25 24 23 22 21 19 16 12 10 9 8 6 5 4 2 2 2 1 1 2 3 4 6 8 10 13 14 16 17 18 19 20 21 22 22 23 25 26 28 29 31 32 34 34 34 35 35 36 36 35 35 35 36 38 39 39 37 34 33 33 32 33 36 37 37 36 36 34 33 31 30 29 28 27 24 23 21 20 19 19 19 19 19 19
32 33 34 33 33 32 30 27 24 20 18 16 13 10 6 2 0 1 2 3 2 3 3 4 4 5 6 8 10 12 13 15 16 18 19 20 20 22 24 26 28 29 31 33 34 34 35 36 36 36 36 36 37 37 38 39 40 38 35 32 29 26 28 33 36 37 37 37 36 36 34 33 31 31 29 27 25 23 22 21 21 20 19 19 19
35 35 35 35 35 35 34 33 31 29 27 25 22 18 14 10 6 2 1 2 2 2 1 1 1 1 2 3 4 5 7 8 10 12 13 15 17 19 21 24 25 27 30 32 33 34 34 35 36 36 37 37 38 38 39 40 41 41 39 34 27 24 28 32 32 31 34 36 36 36 36 34 33 33 31 29 27 25 24 24 22 21 20 20 20
34 35 34 34 33 33 32 31 31 30 29 28 26 24 21 18 15 11 7 5 4 5 6 6 5 5 4 3 2 2 3 4 5 6 8 10 12 15 18 21 23 25 27 30 31 32 33 34 34 35 36 36 37 38 40 40 41 42 43 41 36 32 30 29 27 26 28 32 33 34 35 35 35 34 33 30 28 27 26 25 23 22 21 20 21
32 32 32 32 31 30 30 29 29 28 28 27 25 24 23 21 19 16 13 10 8 8 8 9 8 8 8 7 6 4 3 2 2 3 5 6 8 10 13 17 20 22 24 27 29 30 31 31 32 34 35 35 36 39 40 40 41 43 43 44 44 42 36 31 30 27 24 26 29 31 32 33 33 34 32 30 28 28 27 26 24 23 22 21 21
29 28 29 29 29 28 27 26 26 26 25 25 24 23 23 22 20 18 16 14 12 10 8 9 9 10 10 9 9 8 6 5 4 3 3 4 6 7 10 12 15 19 21 24 26 28 29 29 31 32 33 34 35 38 39 39 42 44 43 43 44 45 43 40 38 34 29 27 28 29 30 30 31 32 30 28 27 27 27 26 25 24 23 22 22
25 26 26 26 26 25 24 23 24 24 23 23 22 22 22 21 20 19 18 17 15 12 10 9 10 11 12 11 10 10 9 8 7 6 5 5 5 6 7 9 11 14 17 21 23 25 27 29 30 31 32 34 35 36 38 40 41 42 43 44 44 44 45 44 42 39 36 33 32 32 32 31 32 32 30 29 29 27 27 27 26 25 24 24 23
23 23 23 23 23 23 22 22 23 23 22 21 21 21 20 20 19 19 18 18 17 15 13 12 11 12 13 13 11 10 10 9 8 7 6 6 6 6 6 7 9 11 13 16 19 22 25 27 29 30 31 33 34 35 37 39 40 41 42 43 45 44 44 45 45 42 40 38 37 37 36 35 36 35 33 32 31 29 28 28 28 27 26 26 25
20 19 20 20 21 21 21 21 21 21 20 20 19 19 19 19 19 19 18 17 17 15 15 14 14 14 13 13 13 11 10 10 9 9 9 8 8 7 7 7 8 9 11 13 15 17 20 23 26 28 30 32 33 34 36 37 39 40 41 43 45 46 46 46 46 44 43 43 41 41 40 38 39 38 36 35 32 30 29 29 29 28 27 27 26
Wind_Direction
180 175 188 194 198 200 200 199 198 200 199 198 195 194 194 194 193 191 185 177 172 167 165 161 159 149 147 144 142 142 137 138 138 138 135 134 132 128 115 100 96 90 83 81 77 80 91 99 97 94 89 67 63 85 97 103 102 99 94 89 85 82 83 84 86 93 103 105 95 83 78 74 71 72 75 81 84 82 83 88 84 87 103 116 113
140 174 188 193 199 200 203 201 200 201 202 206 205 203 200 199 197 192 182 174 171 168 165 162 160 154 155 151 151 150 149 154 154 160 157 154 153 149 128 109 105 102 98 103 106 111 121 128 132 110 82 55 63 82 95 105 102 98 92 85 84 82 81 83 87 94 105 112 106 90 80 72 68 66 64 69 82 85 83 83 79 80 96 107 111
104 173 186 193 200 201 205 205 205 203 203 209 212 212 210 208 201 191 183 177 173 169 166 164 165 164 165 161 161 161 164 171 176 186 187 189 185 176 150 128 122 110 102 111 125 133 139 144 147 120 84 61 74 89 103 111 103 98 85 76 76 77 79 82 87 93 103 111 108 98 87 73 64 62 59 55 64 80 84 79 72 67 75 85 103
84 177 190 194 199 203 206 207 209 207 206 211 214 217 218 214 200 191 187 182 175 171 170 170 172 172 171 169 168 171 178 188 197 204 203 204 198 186 174 157 138 119 111 125 142 146 156 157 151 143 192 125 102 117 123 127 113 103 86 70 59 62 74 76 83 95 110 117 118 113 95 78 68 63 64 58 51 67 87 89 81 68 63 63 77
272 201 200 199 199 202 206 208 209 211 209 211 215 217 221 214 199 195 190 186 181 177 177 178 178 177 176 175 175 182 190 200 210 216 215 212 200 187 181 173 152 137 134 149 155 157 172 168 164 253 230 196 168 158 157 171 159 130 89 46 23 13 6 31 92 107 133 137 129 122 99 84 79 69 67 61 49 49 83 102 101 92 74 61 62
247 228 212 208 204 201 205 208 210 212 211 212 214 217 220 214 207 203 196 192 188 186 187 187 186 183 182 182 188 198 205 217 219 211 202 192 183 177 175 175 160 147 150 167 165 174 190 191 265 269 249 222 207 196 195 209 226 239 256 296 321 321 312 283 210 182 189 214 166 135 115 103 97 82 70 50 38 29 55 88 96 108 100 85 71
237 238 223 216 213 207 205 208 211 214 214 213 214 216 218 217 215 211 205 201 197 196 196 195 193 190 190 194 200 211 227 231 216 199 190 178 176 175 174 170 162 157 166 183 186 197 205 233 274 272 264 245 230 225 220 225 236 247 258 274 290 298 293 267 233 220 204 217 240 194 174 183 163 126 95 62 29 355 345 48 35 114 134 126 114
222 235 230 223 220 216 212 210 212 215 218 218 217 218 219 219 219 218 215 210 207 205 204 202 199 197 198 203 208 219 227 222 208 210 203 182 178 181 179 174 170 173 180 189 202 211 219 251 270 269 265 255 246 243 242 244 251 260 266 275 282 286 280 264 240 227 214 213 238 229 205 209 193 179 159 163 245 295 289 281 302 261 152 151 155
215 227 232 232 224 221 220 216 216 217 220 222 223 223 222 222 221 222 222 219 216 213 212 209 205 204 206 207 215 220 212 207 206 217 213 188 183 191 188 186 180 183 190 198 214 221 235 257 267 268 263 257 255 252 256 261 267 274 277 280 282 279 270 257 242 231 220 211 228 232 217 215 202 185 172 177 211 232 244 262 287 292 220 208 220
214 218 228 235 229 224 223 222 222 222 223 224 226 227 226 226 224 224 225 224 222 220 217 213 211 211 211 212 218 219 208 205 209 219 216 194 206 217 197 197 193 193 198 213 230 239 253 265 269 267 259 254 256 258 262 268 274 278 281 283 281 275 262 250 243 232 220 210 218 227 224 222 215 198 190 196 205 221 237 257 280 287 290 285 259
219 215 224 232 234 230 225 225 226 226 227 226 227 228 229 229 229 227 226 225 224 223 221 217 216 216 214 216 215 211 207 208 216 224 221 213 236 239 217 217 216 213 214 226 242 256 267 276 276 270 258 251 255 260 263 268 274 279 281 284 282 273 257 245 238 226 218 210 214 224 229 230 229 219 213 213 209 219 240 255 273 280 287 282 260
233 222 223 228 234 236 230 228 228 229 230 231 230 229 230 230 231 231 228 226 225 223 222 221 221 222 220 220 211 204 206 210 223 229 223 227 244 244 233 233 235 235 239 244 254 265 275 281 284 279 260 251 254 256 258 261 266 274 273 276 278 272 255 238 224 215 213 210 213 224 232 235 235 232 227 225 220 225 241 252 259 261 248 235 257
245 235 228 227 229 237 239 234 231 232 233 234 234 233 232 232 232 232 231 228 227 225 222 223 224 225 224 222 211 205 208 209 222 229 224 233 248 253 249 244 243 243 246 252 258 265 275 280 285 285 264 253 250 248 243 235 221 221 228 246 258 257 247 216 199 207 214 213 214 223 232 237 238 238 237 239 237 239 249 256 256 248 233 230 251
251 245 239 233 230 234 240 241 238 236 236 236 236 236 236 235 233 233 233 231 229 227 224 225 227 226 225 221 211 207 211 211 221 229 228 237 251 262 264 261 259 254 250 250 253 258 265 270 275 272 259 249 235 221 196 187 186 203 224 241 251 254 253 236 218 219 223 220 219 224 233 241 244 245 248 252 256 260 263 260 252 241 237 239 246
261 252 247 241 234 234 237 242 243 242 241 240 239 239 239 238 237 236 234 232 229 227 225 227 230 230 227 221 212 209 213 214 221 229 232 241 255 267 269 267 263 258 253 251 251 251 249 251 254 246 232 210 195 184 173 179 190 213 236 247 258 261 259 254 243 239 238 233 228 227 233 241 247 250 254 257 262 268 269 261 247 241 241 243 246
269 257 251 247 239 236 236 238 241 244 245 245 243 241 242 241 241 240 239 238 234 230 227 228 233 233 229 221 213 212 215 217 224 232 237 249 262 269 270 263 254 252 253 252 250 245 238 237 237 225 205 186 179 177 180 188 199 212 226 239 251 258 259 253 247 250 249 242 239 236 234 238 245 251 256 261 265 267 265 259 252 247 248 249 251
272 264 257 252 246 241 236 236 238 241 244 245 245 244 245 244 243 244 243 243 241 235 231 230 232 233 229 220 214 215 218 223 231 236 242 255 266 271 271 261 248 247 253 253 249 242 234 232 225 209 194 181 178 182 190 197 205 214 224 235 245 256 255 247 251 259 261 253 245 241 237 236 242 249 256 264 269 270 266 263 261 257 257 260 263
274 271 263 256 251 248 241 237 236 238 240 242 243 244 245 246 244 245 245 244 242 238 234 231 230 231 226 219 216 218 223 228 234 239 246 257 267 272 268 258 248 246 251 252 248 241 234 229 214 200 191 183 185 190 197 204 212 223 233 244 253 257 254 252 259 268 270 265 251 245 242 241 244 250 254 262 270 274 273 271 270 268 269 272 274
273 272 269 262 254 250 247 241 238 236 238 240 241 242 244 246 245 245 245 244 242 239 234 230 229 228 224 218 217 220 225 230 236 241 248 257 265 269 262 255 248 245 247 247 243 235 228 221 207 199 194 188 192 196 201 207 215 226 235 246 250 253 258 261 267 272 273 268 260 256 254 253 255 257 259 264 270 276 278 278 278 277 276 277 280
274 270 270 268 260 252 249 246 243 239 238 239 240 241 243 244 244 244 243 243 242 239 235 231 229 227 223 217 217 220 224 230 236 242 249 256 261 261 255 251 245 240 240 241 236 228 222 214 205 201 197 193 197 202 207 213 220 230 239 245 250 255 260 266 272 275 271 265 264 264 263 264 265 265 266 268 271 273 276 276 276 277 277 280 284
279 271 268 267 264 257 251 248 247 244 243 241 241 241 242 243 243 242 241 242 241 239 236 233 232 229 224 220 218 220 224 230 237 245 251 255 257 254 248 244 240 236 235 236 232 224 217 212 207 205 201 199 202 207 212 219 228 237 246 251 256 260 264 271 275 276 270 267 267 266 266 266 267 267 268 268 270 270 271 272 272 272 272 277 283
285 275 267 263 263 263 257 251 248 247 246 245 244 243 242 242 241 241 240 240 239 237 236 234 233 231 226 223 221 222 226 232 239 247 253 256 255 250 243 238 236 233 231 234 231 222 217 214 211 210 207 206 208 212 218 226 235 242 249 253 258 263 269 274 276 278 276 277 276 275 275 273 273 272 273 273 273 273 274 276 275 274 273 273 277
289 282 271 263 261 261 261 256 250 248 249 248 247 246 244 242 240 240 241 240 238 236 235 234 234 232 229 227 225 226 231 236 242 249 254 256 255 248 239 233 232 232 230 232 232 225 220 218 214 215 214 212 214 218 225 233 240 245 249 254 259 263 269 272 273 276 278 280 282 283 285 286 287 287 287 286 285 287 286 285 284 284 283 281 278
293 287 275 264 258 257 259 261 257 251 250 250 249 248 247 244 242 240 241 241 239 237 236 235 234 233 231 230 231 233 237 241 245 249 252 254 253 248 238 231 231 231 230 230 233 229 222 221 218 218 219 215 216 222 229 236 242 245 249 253 258 261 263 266 269 270 271 273 276 280 283 287 290 293 296 298 300 302 301 296 293 291 292 295 286
294 286 278 272 268 265 262 261 261 257 252 251 251 251 250 247 244 241 241 241 240 239 237 236 235 234 232 232 234 237 240 243 245 248 251 252 252 250 241 234 232 231 231 230 233 232 226 225 221 221 222 216 216 223 228 235 239 242 246 248 251 255 257 259 263 264 265 266 269 272 276 281 284 289 293 296 300 304 306 303 301 300 300 298 290
295 291 290 289 284 281 274 264 260 258 257 254 252 253 253 250 248 246 243 241 240 240 238 237 236 236 235 234 235 237 240 242 244 247 249 251 252 251 246 239 235 233 234 233 234 235 231 227 222 224 226 218 217 222 227 232 235 237 241 243 244 247 250 252 255 260 261 262 263 265 267 270 274 278 282 287 293 297 300 300 299 302 301 293 290
297 296 299 299 294 292 288 277 266 261 259 257 255 252 252 252 251 250 248 246 243 241 239 239 238 238 237 236 237 238 240 242 243 246 248 251 252 252 248 241 239 237 236 236 237 238 234 228 222 226 229 222 220 222 227 232 233 235 236 237 239 240 245 247 249 253 258 260 260 261 261 263 265 268 271 275 280 283 285 285 286 289 283 280 250
296 298 301 299 297 296 292 286 281 274 266 261 257 255 254 253 253 251 250 250 247 245 243 242 241 240 239 238 239 240 241 243 244 246 248 249 251 253 250 243 240 240 239 237 239 240 237 231 225 229 232 228 224 224 227 232 233 234 234 235 236 238 241 244 246 248 253 256 257 257 256 257 259 261 265 268 270 272 275 274 273 268 261 260 212
296 302 303 299 299 296 289 284 284 283 278 267 260 257 255 254 254 253 252 252 251 250 248 245 245 244 243 241 240 240 242 245 247 248 249 250 251 253 253 248 243 241 241 239 239 241 240 234 230 231 234 231 229 227 228 231 232 234 235 236 237 238 240 243 246 245 248 253 254 254 255 256 257 260 263 265 268 268 270 269 263 256 252 258 240
297 301 301 300 300 294 288 285 285 285 282 273 265 260 256 255 255 256 256 256 255 256 254 250 249 248 248 245 243 243 243 245 248 250 252 253 253 253 254 252 246 242 242 241 240 241 241 238 233 233 236 234 231 230 231 233 234 235 236 238 238 239 242 245 249 246 245 251 254 254 255 257 258 261 264 265 269 268 268 266 257 249 249 262 250
290 293 298 300 297 291 288 287 285 284 282 278 272 264 258 256 256 257 257 257 258 258 258 256 255 253 252 251 249 248 246 245 248 250 252 253 254 254 254 255 250 245 244 243 241 241 241 240 235 234 238 238 234 232 233 235 235 235 236 238 239 239 242 245 249 249 246 248 252 255 255 258 259 261 264 265 268 268 266 261 252 247 234 231 219
268 270 278 286 286 287 287 287 286 284 281 280 277 270 264 259 256 255 255 256 258 258 259 259 258 258 256 254 254 253 249 247 249 252 252 253 254 254 254 255 253 248 245 245 243 241 241 240 237 233 236 237 234 233 235 236 236 236 236 237 238 239 241 243 247 249 247 247 251 255 255 258 259 259 262 263 265 266 266 265 263 259 237 228 216
253 254 253 262 275 285 286 286 286 284 282 281 280 275 268 263 259 256 255 254 255 256 258 259 260 260 259 257 257 256 253 252 253 254 254 254 255 255 255 256 256 250 245 245 245 243 241 241 238 234 234 236 234 233 234 235 236 236 236 237 239 239 240 242 245 247 247 248 250 254 255 256 257 258 259 260 262 263 265 268 266 260 245 241 222
255 258 258 262 273 291 292 287 288 286 284 283 279 276 270 265 262 259 257 255 255 255 256 258 260 260 260 260 260 259 258 257 257 256 256 256 256 257 256 257 258 252 246 245 247 246 245 244 242 237 235 237 236 235 236 238 238 238 238 239 240 240 241 242 245 247 248 249 250 251 253 254 255 255 257 257 259 262 263 264 261 254 244 238 216
264 271 276 274 271 290 303 294 295 293 287 284 282 279 273 268 264 261 258 257 256 255 256 257 258 258 259 260 260 260 260 259 259 258 257 257 257 258 259 260 261 255 248 249 250 250 249 246 244 240 237 238 239 238 238 240 240 240 241 241 242 242 243 245 245 247 248 250 250 250 251 253 255 255 256 257 259 261 261 261 258 250 241 232 222
276 279 281 279 265 261 302 299 298 294 288 284 280 276 272 267 263 262 260 258 257 256 256 255 255 255 256 258 259 258 258 258 258 258 258 258 259 260 260 262 262 257 253 253 253 254 253 250 246 242 239 240 241 241 240 241 241 241 242 242 243 244 246 246 246 246 249 251 251 250 251 252 255 256 256 258 261 261 260 259 257 250 243 234 228
279 273 268 261 239 213 210 257 264 271 276 273 272 269 267 263 260 259 257 256 256 256 256 254 253 252 254 255 256 256 255 255 256 257 258 259 260 261 261 262 261 259 259 259 256 256 257 255 251 246 242 241 243 244 242 242 243 243 243 243 244 245 247 248 247 247 249 251 252 253 254 253 254 257 258 261 263 262 261 261 258 254 247 240 235
271 256 246 227 208 200 192 193 202 219 238 243 251 256 257 257 256 255 253 252 252 253 254 253 253 252 252 252 252 253 254 254 255 256 258 259 260 260 261 261 260 260 263 262 259 257 256 256 254 251 246 243 243 245 245 245 246 245 245 245 245 246 247 248 248 248 249 251 253 255 256 256 257 259 261 262 262 263 264 264 262 257 251 246 242
191 187 194 193 193 191 188 192 197 201 203 205 220 236 245 250 252 251 250 249 248 249 250 251 252 252 251 251 251 252 253 255 257 257 259 259 259 260 260 261 260 261 263 261 259 257 255 255 255 254 250 246 245 246 246 246 247 246 245 245 245 245 246 248 248 249 250 251 253 255 255 258 260 262 262 262 261 263 266 267 264 259 253 248 244
120 145 162 173 178 179 187 190 181 173 158 157 178 204 223 235 243 247 249 250 250 250 251 251 252 252 252 252 251 252 252 254 256 258 260 260 260 260 261 261 261 261 261 259 259 259 259 258 257 256 253 249 245 243 243 244 245 246 245 244 244 245 247 248 248 248 249 251 252 253 254 257 260 262 262 262 261 262 265 267 265 260 255 250 246
102 120 134 137 141 148 158 149 139 139 136 133 137 150 167 191 215 229 236 240 243 246 248 249 251 252 253 253 253 254 254 255 256 258 259 260 261 261 261 261 260 260 260 261 262 262 262 260 259 257 254 250 247 244 242 241 240 241 242 243 244 246 247 247 247 247 248 249 250 252 253 255 257 260 261 261 260 260 262 264 263 261 257 253 249
79 80 80 80 78 80 87 94 100 93 89 95 96 99 101 105 137 190 210 223 229 233 237 240 244 247 250 252 254 255 255 256 258 259 261 262 263 263 262 261 261 261 261 261 261 260 260 259 258 256 254 252 249 247 244 240 238 240 242 243 243 243 245 246 247 248 247 247 249 250 251 252 255 257 258 259 260 260 260 260 260 261 258 255 252
76 75 74 74 71 69 69 71 72 64 57 53 50 58 71 81 85 92 121 213 229 239 242 241 243 245 248 250 253 255 256 257 258 259 260 262 263 263 263 262 262 262 261 260 259 259 258 258 257 256 255 252 249 246 244 243 242 241 240 239 241 242 244 245 246 248 248 248 249 249 250 251 253 255 256 257 259 260 260 259 259 259 258 256 253
79 77 75 72 71 69 68 68 68 64 61 56 50 47 46 45 62 198 220 232 242 257 261 261 260 256 251 249 249 250 251 252 252 253 253 254 256 258 260 261 262 262 262 261 260 260 260 259 259 259 256 252 248 246 245 244 243 241 237 234 236 239 242 246 248 248 247 247 249 250 250 251 253 254 255 256 257 259 260 259 258 257 256 253 251
79 77 75 73 71 70 68 67 66 65 63 61 59 57 56 53 51 53 234 238 246 257 255 281 287 285 267 247 246 242 239 239 239 241 243 245 247 249 252 255 257 259 260 261 261 262 262 262 261 261 259 256 253 251 248 245 244 244 241 236 233 236 243 248 251 250 247 247 249 250 251 251 252 254 255 255 255 256 256 256 256 255 254 252 249
78 77 77 75 73 71 69 67 65 63 61 60 60 59 60 59 58 59 58 52 34 29 37 35 21 9 6 355 322 278 250 238 226 224 229 235 239 242 245 248 251 254 257 259 261 261 261 261 261 261 260 260 258 254 251 249 248 246 243 241 241 244 249 251 249 248 248 248 248 249 250 250 251 253 254 254 254 253 252 252 253 252 251 250 249
76 76 76 74 72 69 67 64 62 61 59 58 57 56 57 58 58 59 59 57 47 36 33 32 30 24 18 15 11 5 345 305 273 245 229 227 229 232 238 243 247 251 254 257 259 260 261 261 262 262 261 261 259 255 253 252 250 248 246 245 245 245 248 251 249 248 249 248 248 248 248 249 250 251 253 253 252 250 249 249 249 248 248 249 249
74 72 71 69 67 64 62 60 58 58 57 55 54 54 54 55 56 56 57 57 52 45 35 32 37 39 34 29 22 21 20 12 351 324 289 260 244 235 235 237 241 246 250 254 257 260 261 261 261 262 261 260 258 257 256 254 252 252 252 251 249 246 245 247 249 251 251 252 253 251 249 250 250 250 252 252 250 248 247 247 246 245 246 248 248
69 67 66 64 62 59 56 55 55 56 55 53 51 52 52 52 53 53 53 54 52 48 41 34 38 41 41 37 29 24 21 19 16 3 343 323 299 275 259 249 243 242 244 250 254 257 259 260 260 261 261 260 259 259 258 256 255 256 256 254 253 251 247 246 247 249 250 252 253 252 252 250 248 250 253 252 251 250 247 246 245 244 244 245 247
66 62 60 59 58 54 51 50 52 53 52 51 49 49 49 48 48 48 47 48 48 46 42 39 38 38 39 36 31 24 14 8 8 6 356 341 326 313 296 280 268 257 250 248 248 250 254 257 259 260 262 262 261 260 260 259 258 258 257 256 255 253 250 246 244 245 247 249 251 252 254 252 252 256 258 257 255 252 249 247 247 246 245 246 247
62 55 53 53 52 51 48 47 50 51 50 49 46 44 42 40 40 39 39 40 40 37 35 34 33 32 34 34 32 26 14 2 354 350 348 344 338 330 319 302 291 280 271 263 255 250 249 251 254 257 260 261 261 261 261 261 260 259 258 257 256 255 254 252 250 249 250 251 252 253 255 256 258 260 261 260 257 251 248 249 249 249 248 248 247